Wind_Speed
25 27 25 22 21 22 21 21 22 24 26 26 25 24 23 22 20 19 19 18 18 17 18 19 19 19 18 18 19 20 20 21 21 21 21 20 19 18 18 17 17 17 17 17 15 17 18 17 17 17 17 17 16 14 14 15 16 17 18 18 19 20 20 20 20 20 19 19 18 18 19 19 18 17 18 18 17 17 16 16 17 18 17 15 15
26 27 25 21 21 21 21 22 23 25 26 26 25 24 23 22 21 19 19 19 18 17 17 18 19 18 18 17 17 18 19 19 20 20 20 19 18 17 17 16 16 16 16 16 16 17 17 17 16 16 16 15 15 14 14 15 16 17 18 19 19 19 19 20 20 19 20 20 18 18 19 18 18 18 17 17 17 17 16 15 16 16 15 14 14
28 27 24 21 21 21 21 22 24 25 25 26 25 24 23 22 21 19 19 19 19 18 17 17 17 18 17 17 17 17 18 18 19 19 19 18 17 16 16 15 15 15 15 16 16 17 17 16 15 15 14 13 14 14 14 15 17 17 18 18 18 20 20 21 20 19 19 19 18 18 18 17 18 18 17 16 16 16 16 15 14 15 14 14 14
31 27 23 21 20 21 21 23 25 24 25 25 24 24 23 23 21 20 20 19 19 18 17 16 16 17 17 16 16 16 17 18 18 18 17 16 16 15 14 14 14 15 16 17 17 17 16 15 15 14 13 13 13 13 13 14 16 17 18 17 18 21 21 21 20 20 20 19 17 17 17 17 18 17 17 17 16 16 16 15 14 15 15 15 14
32 27 23 21 20 21 21 23 24 24 25 24 24 23 23 23 21 20 20 20 19 18 17 16 15 16 16 16 16 16 16 17 17 17 16 15 14 13 13 13 14 16 17 17 17 16 15 14 14 13 13 12 11 11 13 14 15 17 18 17 19 20 19 20 21 21 20 18 16 16 17 18 18 17 16 16 15 15 15 15 15 14 14 13 13
32 27 23 22 20 21 22 24 24 24 25 24 23 23 24 23 22 20 19 20 19 17 16 15 15 15 16 16 16 16 16 16 16 15 14 13 12 12 12 13 14 15 17 17 15 15 14 13 13 13 12 11 10 11 12 13 15 16 17 17 18 18 17 19 20 19 16 15 15 14 15 17 17 16 14 15 15 14 13 13 14 13 13 13 13
31 28 24 23 22 22 23 24 24 24 24 24 23 22 24 23 22 20 20 20 18 17 15 15 15 15 16 16 16 16 16 16 15 14 13 13 12 12 12 13 13 15 15 15 14 14 13 13 12 12 11 10 10 11 12 14 15 16 15 16 17 17 16 16 14 15 13 11 12 12 14 15 16 16 13 13 14 13 13 13 12 12 13 13 13
30 28 25 24 22 23 23 23 24 24 24 23 23 22 23 23 22 21 20 19 18 17 15 14 15 15 16 16 16 16 15 15 15 14 14 14 13 13 13 14 13 14 14 13 13 13 13 12 11 11 10 10 11 11 13 14 15 14 14 13 14 14 14 13 11 11 11 8 9 10 13 13 13 15 13 12 13 13 13 12 11 12 13 13 12
25 26 24 23 22 23 22 23 23 23 23 22 22 22 22 22 22 21 20 19 18 16 14 14 15 16 15 15 15 15 15 14 15 14 14 14 14 13 13 13 13 13 13 12 12 12 12 11 11 10 10 9 9 11 12 13 14 12 11 11 11 11 10 10 7 8 9 7 7 9 11 12 12 13 13 12 12 11 11 12 12 12 12 12 12
15 17 20 21 21 21 21 21 22 22 22 21 22 21 21 21 21 20 19 19 17 16 14 15 16 16 15 15 14 14 14 14 14 14 13 12 12 12 11 12 13 13 13 12 11 12 12 11 10 9 9 8 8 8 10 11 12 11 10 10 9 8 7 6 4 8 11 9 8 9 10 11 12 12 12 11 10 10 11 12 12 11 12 12 12
15 11 15 18 19 19 20 20 21 21 21 21 21 20 20 20 20 20 19 18 17 16 15 16 17 16 16 15 14 14 14 14 14 13 12 11 11 10 10 11 11 12 12 12 11 12 12 10 8 8 7 7 7 6 8 10 10 10 9 9 8 7 6 6 5 10 14 12 10 9 10 10 11 10 10 11 9 10 11 12 11 11 11 11 12
21 15 14 14 16 18 19 20 21 21 21 21 20 20 20 20 20 19 18 17 17 17 17 17 17 17 16 15 14 14 13 13 13 12 12 11 10 10 10 10 11 10 10 11 11 11 9 7 6 6 6 6 6 6 9 10 9 9 9 8 7 8 9 7 8 12 15 14 11 10 10 10 10 10 10 11 9 9 11 11 11 11 10 11 12
24 22 18 14 14 17 19 20 21 21 21 21 21 20 20 20 19 19 18 17 18 18 18 17 17 16 15 14 14 13 13 13 12 11 11 10 10 9 10 10 9 9 9 9 9 9 7 5 4 5 6 6 6 5 9 10 9 8 8 8 8 9 10 9 12 15 16 14 11 10 10 8 8 8 9 12 11 10 11 11 11 10 10 11 11
27 25 22 17 14 16 18 20 21 21 22 22 21 21 21 21 20 19 18 18 19 18 18 17 17 16 15 14 14 13 13 12 12 11 10 10 10 9 9 9 8 8 8 9 8 7 5 4 4 6 6 6 6 6 9 10 9 9 8 8 8 8 9 9 14 15 15 12 11 10 8 6 6 7 8 11 12 11 11 11 10 10 10 10 10
29 25 24 21 16 15 17 19 20 21 22 22 22 21 21 22 21 20 19 18 18 18 18 17 16 15 15 15 14 13 12 12 11 10 10 10 9 9 9 9 8 8 8 8 8 7 5 6 6 6 6 7 7 7 8 10 10 9 9 8 7 7 9 10 15 15 14 12 12 10 8 6 5 7 8 11 12 11 11 11 10 10 10 9 8
29 24 24 24 21 17 17 18 19 21 21 21 21 22 21 21 21 20 19 18 17 17 17 16 16 15 15 15 14 13 12 11 10 9 9 9 9 9 8 8 8 8 7 8 8 7 7 7 7 7 8 8 8 7 7 8 9 9 9 8 6 7 8 10 17 16 14 12 12 9 6 5 5 7 9 11 12 11 11 11 10 10 10 9 8
29 25 22 23 23 19 19 19 18 19 19 20 20 21 21 21 21 19 18 17 17 16 16 16 15 14 14 14 13 12 11 11 10 9 8 8 9 9 9 8 8 8 7 8 8 8 8 7 7 8 9 9 9 7 6 6 8 8 9 7 6 7 8 10 17 16 14 12 11 8 5 5 5 6 7 10 12 11 11 11 11 9 9 9 9
29 29 25 22 23 21 21 20 19 19 19 19 19 19 20 20 20 19 18 17 17 16 15 15 14 14 13 12 11 11 10 10 9 9 8 8 8 8 9 9 8 8 8 8 8 9 9 7 7 8 9 9 8 8 7 6 7 8 8 7 5 7 8 11 18 16 14 11 9 7 5 4 4 4 5 8 11 11 10 11 11 10 9 9 9
28 28 26 23 23 22 21 21 20 20 19 18 18 18 19 20 19 18 18 17 17 16 15 14 13 13 12 11 10 9 9 8 8 8 8 8 7 8 8 9 8 8 8 8 8 9 8 7 7 7 8 7 7 7 6 6 7 8 7 5 5 8 9 10 18 16 13 11 9 6 4 3 2 2 4 7 10 11 10 10 10 10 10 9 9
27 24 22 21 22 21 21 20 19 19 18 18 18 18 18 19 18 18 17 16 16 15 14 13 12 11 11 11 10 9 8 7 7 7 7 8 8 7 7 8 8 8 8 7 8 8 7 7 7 7 7 6 6 6 6 6 7 7 7 4 4 7 9 8 16 14 12 11 8 5 3 2 1 2 4 8 11 11 10 10 9 9 9 8 9
23 20 19 21 21 21 20 19 18 18 18 18 18 18 18 18 18 17 15 15 14 13 13 12 11 11 10 10 9 9 8 7 7 7 7 7 8 7 7 7 8 8 7 7 7 7 6 6 6 7 6 6 5 5 5 5 6 7 7 5 3 5 8 5 12 14 11 10 7 4 2 1 2 3 5 9 11 11 11 10 9 9 8 8 9
20 17 18 21 21 20 19 18 18 17 17 17 18 18 17 17 17 16 15 14 13 12 12 12 11 10 10 9 9 8 8 7 6 7 7 7 7 7 7 7 7 8 7 6 6 6 6 5 6 6 5 5 4 4 4 4 5 6 7 5 2 4 6 5 8 14 11 10 7 4 3 1 2 4 6 9 11 12 11 10 10 9 8 8 8
22 20 20 20 20 20 18 18 18 17 17 17 17 17 17 16 16 16 15 14 13 12 12 12 11 11 10 9 9 9 8 8 7 6 7 7 7 7 7 7 7 7 6 6 6 6 5 5 5 5 5 4 3 2 3 3 3 4 5 4 2 4 5 5 5 13 11 9 7 5 3 1 2 4 7 9 11 11 11 10 10 9 9 8 8
24 24 22 20 20 19 18 18 18 17 17 17 17 16 16 16 16 15 14 14 13 13 12 12 11 11 10 10 9 9 9 8 7 7 7 7 7 7 7 7 7 6 6 6 6 6 5 5 5 5 5 4 3 2 3 3 3 3 2 3 3 3 3 4 4 11 11 9 7 5 3 2 3 5 6 8 10 11 10 10 9 9 10 9 8
22 23 22 20 19 19 18 17 17 17 17 17 17 16 16 16 16 15 14 14 14 14 13 12 12 11 10 10 9 9 9 8 8 8 8 7 8 8 7 7 7 6 6 6 6 6 5 5 5 5 5 4 4 3 3 3 2 3 2 3 2 1 2 3 3 10 11 10 7 5 4 4 4 6 6 6 9 11 10 10 10 9 10 10 9
20 21 21 20 20 20 19 18 16 16 16 16 16 16 17 16 16 15 15 15 15 14 13 12 11 11 10 10 9 9 8 8 8 8 8 8 9 9 8 8 8 7 7 6 7 7 6 5 4 5 5 5 5 4 4 2 1 2 2 2 1 1 2 3 3 9 11 10 7 5 5 5 5 6 6 6 8 10 10 10 10 9 9 10 10
19 19 20 20 21 20 19 18 17 16 16 15 15 16 16 17 16 16 16 16 16 15 14 13 12 12 11 10 9 9 8 8 8 8 9 9 10 9 9 9 9 9 8 8 8 7 6 5 4 4 5 6 6 5 4 2 2 1 1 2 1 2 3 2 5 8 10 10 7 6 6 5 5 5 6 6 7 10 10 10 10 9 9 9 10
17 17 20 20 21 20 18 18 18 17 17 16 15 16 16 17 17 17 17 16 17 16 15 14 13 13 12 10 10 9 9 9 8 8 10 11 11 10 10 9 9 9 9 8 9 7 6 5 4 4 4 6 7 6 4 4 4 4 5 5 3 4 4 3 6 8 11 10 7 6 6 5 5 6 7 6 7 10 10 10 10 9 9 9 9
16 17 19 17 17 17 18 18 18 19 18 17 16 16 17 18 18 17 16 16 17 16 15 14 13 13 13 11 10 10 10 10 9 10 12 12 12 11 10 10 10 10 9 9 9 8 7 6 5 5 5 5 6 6 5 6 6 5 7 8 5 4 4 6 7 8 11 10 8 7 7 7 6 7 7 6 7 10 10 10 11 10 10 9 9
18 17 19 16 13 15 19 20 19 20 19 19 18 17 17 18 19 17 16 16 16 16 15 14 14 14 14 13 11 10 10 10 10 11 12 12 12 12 11 11 10 10 10 10 9 9 8 6 6 6 6 6 6 6 6 7 7 8 9 9 7 4 4 7 8 9 10 9 8 8 7 7 7 6 6 5 8 10 9 9 10 9 9 10 10
18 19 24 22 16 17 20 22 21 21 20 19 18 17 17 18 18 18 16 15 14 14 14 14 14 13 14 14 12 11 11 11 11 12 12 12 12 12 12 12 11 11 11 10 10 10 8 7 7 6 6 6 6 6 6 6 7 10 11 11 9 5 4 9 10 10 11 10 9 8 8 8 7 5 5 4 6 10 10 9 9 8 8 10 11
20 21 25 25 23 21 22 24 23 22 21 19 18 18 17 17 17 17 16 14 14 14 14 13 13 12 12 13 13 13 13 13 13 12 12 13 12 12 12 12 11 10 10 10 9 10 10 8 7 7 7 7 6 6 6 5 6 9 11 9 6 3 4 9 12 12 12 11 11 10 8 8 7 6 5 3 4 8 10 11 10 9 7 8 11
22 22 23 25 26 24 24 26 25 23 21 19 19 18 17 16 15 15 14 14 14 15 14 14 13 12 12 13 14 14 14 15 15 13 12 12 11 10 11 10 10 9 10 10 9 10 10 9 8 8 8 7 7 8 7 4 4 6 7 6 2 2 3 7 13 14 13 12 12 11 10 9 9 7 6 5 5 5 8 10 10 10 7 7 9
26 24 25 25 24 24 26 26 25 24 21 19 18 18 16 14 13 14 13 14 14 14 14 14 14 13 13 14 14 15 15 15 14 14 13 11 10 9 9 9 9 9 9 10 9 10 9 9 9 8 8 8 9 10 8 4 4 4 5 5 2 1 1 5 12 15 15 14 13 13 12 11 10 10 8 7 7 6 7 8 9 10 8 6 8
28 28 29 28 28 27 28 27 26 25 22 20 18 18 16 14 13 13 13 13 13 14 13 14 13 13 13 13 14 15 15 15 14 14 13 13 11 10 9 8 9 9 10 10 10 10 10 8 7 7 8 10 11 10 9 5 4 4 4 3 4 4 6 7 9 12 14 16 15 15 14 13 12 11 10 9 9 8 7 7 8 9 8 7 9
30 30 30 30 31 29 29 29 27 25 22 20 19 18 16 14 14 12 10 10 11 13 13 13 13 12 11 11 13 15 15 15 15 15 15 14 13 12 10 9 9 9 9 10 10 10 9 8 8 8 9 9 10 9 8 6 5 4 4 3 4 6 7 9 8 8 10 13 14 15 15 15 14 13 12 11 10 9 8 8 8 8 8 7 8
32 33 34 34 33 31 31 31 28 25 22 20 20 19 16 14 14 13 10 8 9 11 11 11 12 10 10 10 11 13 14 14 15 15 14 14 14 13 12 10 10 9 8 9 11 11 8 8 10 9 9 8 7 5 4 5 4 4 3 3 4 5 6 9 11 10 9 8 8 12 15 16 16 15 14 13 12 11 10 9 9 9 8 7 8
34 33 36 36 35 34 33 31 28 24 21 21 21 19 16 14 13 12 11 11 10 10 9 8 8 7 7 7 8 9 10 11 12 13 12 12 12 11 12 11 9 8 8 9 11 12 10 9 10 10 8 7 6 5 4 3 3 3 2 3 4 4 5 6 8 9 9 9 7 4 8 14 17 18 17 15 15 14 12 11 11 11 9 8 8
35 32 35 34 33 32 30 29 26 23 22 22 22 18 16 16 14 12 12 13 13 12 10 8 8 6 5 4 4 4 5 7 9 9 9 9 9 9 10 9 8 7 8 9 10 12 12 10 10 10 8 6 5 6 5 3 3 4 3 3 4 5 5 5 5 6 6 7 8 7 2 5 12 18 20 18 17 17 15 15 14 14 12 10 10
34 32 33 31 31 30 28 27 25 24 24 24 22 19 19 20 19 17 15 14 14 14 12 10 9 7 6 4 3 3 3 5 6 6 6 7 7 8 9 8 7 6 7 8 8 11 13 11 9 9 8 6 6 7 6 5 3 4 4 2 3 4 5 5 5 5 5 5 6 6 6 4 3 10 16 19 18 17 17 17 17 17 15 13 13
31 32 30 28 28 27 27 26 24 24 23 23 23 21 22 23 23 21 18 16 15 14 13 11 9 8 6 4 4 4 4 5 4 4 5 5 5 4 5 5 5 5 5 6 7 8 11 11 9 8 8 6 6 7 7 5 3 3 4 4 3 4 5 5 6 5 5 5 5 6 5 5 3 2 7 13 16 17 17 17 18 18 18 16 15
30 30 29 27 26 25 25 25 23 22 21 22 23 22 22 23 24 23 21 18 15 13 13 12 11 10 9 6 4 4 4 5 5 5 5 5 5 6 5 5 4 5 5 5 6 7 9 10 10 9 8 7 6 6 6 5 2 2 2 2 4 4 5 5 6 5 5 5 2 3 3 2 2 2 4 6 9 11 13 15 17 18 19 19 17
29 28 27 26 24 24 23 24 24 21 21 22 22 21 21 21 22 24 24 21 17 14 13 11 10 9 8 6 5 4 4 3 5 6 6 5 6 6 7 7 6 6 6 6 6 7 7 8 9 9 8 7 6 6 5 4 2 0 1 1 1 3 3 4 4 3 4 6 7 5 2 2 1 1 4 6 6 7 8 10 12 14 17 18 18
28 27 27 26 25 24 23 24 24 22 22 22 21 20 20 21 22 24 23 20 17 14 12 11 9 8 7 6 4 4 4 5 5 5 5 6 6 5 7 7 7 6 6 5 5 4 5 5 7 7 6 5 6 6 6 6 5 4 2 0 1 1 2 2 2 2 2 2 4 5 3 3 2 1 3 6 7 7 7 8 8 9 10 12 14
28 28 28 27 25 24 24 24 24 23 23 22 20 20 21 23 24 23 21 19 17 14 14 12 11 10 9 7 5 4 5 5 5 5 6 7 6 6 7 8 8 8 7 6 5 4 3 3 4 5 4 4 5 6 6 7 9 8 4 1 1 1 2 2 2 2 2 1 1 2 2 3 3 2 3 4 4 5 6 7 8 8 9 9 11
27 28 28 26 25 24 23 24 25 23 22 20 20 21 22 24 25 24 22 22 19 16 16 15 13 12 10 9 7 6 6 5 5 5 6 7 7 7 7 8 8 10 10 9 9 9 8 5 3 4 5 4 5 7 6 6 10 11 7 2 1 0 1 1 1 1 2 1 2 3 3 3 4 4 6 5 3 5 6 6 7 7 9 11 12
26 28 27 25 25 24 23 25 25 21 20 21 22 22 23 24 24 23 22 22 21 18 17 16 14 13 11 9 8 7 6 6 6 7 7 7 6 6 7 8 9 11 11 11 11 12 12 10 7 4 4 5 6 7 8 7 7 10 9 5 1 0 1 1 0 1 1 2 2 2 3 4 5 6 8 7 6 9 8 7 7 7 8 10 12
28 29 28 26 26 25 24 26 24 21 22 24 24 24 24 25 24 22 22 22 22 20 18 17 16 15 13 12 10 9 7 7 7 8 8 8 7 9 11 11 12 12 11 11 10 11 11 11 11 9 6 4 4 4 6 6 5 7 9 8 4 1 1 2 1 1 2 0 2 3 4 5 5 6 8 8 8 9 10 8 7 7 7 7 9
31 31 30 28 27 26 26 27 24 23 26 26 25 25 25 25 24 23 23 22 22 22 20 19 18 17 16 14 13 12 9 8 7 8 10 12 12 13 13 12 12 12 12 12 11 11 11 10 10 10 9 8 5 5 6 5 4 5 8 8 6 3 2 2 2 2 2 2 1 2 5 6 5 5 5 8 11 11 10 10 10 9 7 6 7
30 31 31 30 30 29 29 29 26 26 29 27 26 26 25 25 24 24 24 24 24 23 21 21 19 18 17 15 14 13 11 9 8 8 10 12 13 12 11 11 11 12 12 12 12 12 11 10 10 10 9 10 10 9 9 7 6 5 6 7 7 4 2 3 4 3 3 3 2 1 4 6 5 8 10 7 7 10 11 12 12 12 10 9 8
26 28 31 31 32 31 31 31 28 27 30 29 27 27 25 24 24 25 25 26 27 25 24 24 21 19 18 17 16 14 13 11 10 10 11 12 12 11 11 12 12 12 11 11 11 10 9 9 10 11 11 11 12 11 11 11 12 11 9 7 7 6 5 5 6 6 5 3 2 1 4 5 4 6 12 15 13 7 6 9 12 14 12 11 10
Wind_Direction
164 162 164 166 165 162 160 156 145 140 139 141 142 142 142 140 137 133 129 125 123 118 116 116 117 117 115 113 112 111 110 109 106 103 101 98 96 94 92 92 94 96 96 92 89 91 95 97 96 97 100 101 102 105 104 109 115 114 112 108 107 107 106 106 105 102 98 94 95 93 88 88 87 87 84 82 83 83 83 83 84 82 78 77 77
162 162 163 165 164 162 159 151 142 139 140 142 142 143 141 140 138 133 130 127 124 120 117 117 117 119 119 118 116 115 113 112 110 108 105 102 100 98 97 98 99 100 98 91 87 91 97 98 98 99 100 102 101 104 106 111 116 114 113 110 110 111 109 106 103 101 99 97 99 96 89 89 87 85 84 85 86 85 85 83 83 81 81 79 76
158 161 163 164 163 161 156 147 140 139 140 142 142 143 141 140 138 133 131 128 125 120 118 117 118 120 121 121 119 118 117 117 115 113 110 108 106 102 102 103 104 104 97 89 88 92 95 97 98 99 100 102 102 103 105 110 114 112 111 111 112 112 109 103 99 97 96 95 97 96 93 91 88 87 86 85 85 86 87 85 83 82 82 79 75
157 161 163 161 161 158 151 144 140 138 140 140 142 143 141 141 137 133 131 130 127 121 118 117 119 121 122 123 123 123 121 121 119 117 114 112 110 106 107 107 107 106 98 93 96 98 97 98 98 98 98 100 103 106 107 110 112 112 111 111 113 111 107 100 96 94 91 88 90 94 98 95 90 89 87 85 84 85 86 86 84 83 83 78 75
157 159 161 157 157 154 147 143 140 138 140 141 142 143 142 141 137 133 132 132 129 122 119 118 120 121 123 124 125 125 125 126 123 121 118 116 114 110 111 109 106 105 100 99 102 101 100 100 99 99 98 99 101 107 111 111 113 115 115 113 116 114 108 101 95 93 88 82 83 88 95 96 92 90 88 88 86 85 87 87 86 85 84 80 78
156 158 159 155 153 152 147 143 141 139 140 141 142 144 143 142 138 134 132 133 130 124 120 120 124 124 125 125 127 127 128 130 128 126 123 120 116 114 114 110 105 104 102 103 104 101 101 100 100 99 97 99 97 107 114 113 117 118 117 118 120 118 113 107 96 89 85 79 78 81 91 96 95 93 91 91 88 86 88 90 89 88 86 82 80
155 157 158 156 154 152 149 144 142 140 139 140 141 144 143 142 140 136 134 135 132 128 124 125 127 129 128 126 128 128 128 130 130 130 125 122 118 117 116 111 107 105 105 105 105 104 104 102 102 98 97 97 89 103 117 118 122 120 119 120 123 123 122 123 109 91 87 81 76 78 89 94 94 95 93 94 92 90 89 89 91 90 89 85 83
154 157 158 157 155 152 149 144 143 141 139 139 139 142 143 143 141 139 137 137 136 132 130 130 131 133 130 127 129 129 130 131 132 130 127 124 120 118 114 110 108 108 109 107 107 108 109 108 105 96 95 97 90 101 118 124 126 124 122 122 125 129 129 137 136 110 102 96 85 83 88 89 93 99 97 99 98 96 94 92 92 93 92 88 87
150 155 156 155 151 149 147 145 142 139 139 138 138 141 142 143 143 142 140 139 138 135 134 133 134 136 135 132 132 132 133 134 134 133 131 128 125 122 117 115 116 118 116 116 120 116 114 113 108 99 93 93 92 103 120 129 129 127 127 128 129 131 134 138 143 133 126 124 110 92 86 86 90 97 99 105 105 100 97 95 94 92 93 90 89
134 143 149 147 145 146 145 143 139 137 137 136 137 140 142 143 144 144 141 140 139 138 138 136 136 138 139 138 136 136 136 136 136 135 132 127 126 125 124 124 126 130 126 124 126 123 121 119 113 108 101 96 95 106 125 134 133 130 129 132 131 130 131 122 128 155 154 150 135 102 89 88 90 97 102 107 104 96 96 95 93 92 92 90 87
134 128 137 140 144 145 142 140 137 136 136 136 137 138 140 141 143 143 142 141 141 141 140 137 137 139 140 141 141 140 138 138 136 134 130 124 123 122 123 126 129 135 136 132 130 129 130 125 116 110 108 100 95 107 131 141 138 132 131 132 129 121 99 91 125 158 159 150 138 113 99 96 95 102 105 108 103 99 102 98 96 95 94 92 87
141 135 131 139 146 145 142 139 135 135 135 137 137 137 138 139 143 143 143 143 142 141 139 137 136 138 140 141 143 143 142 138 135 131 127 124 120 118 120 125 131 136 139 141 140 139 135 126 109 105 107 97 88 101 132 144 141 132 134 133 122 102 76 93 136 148 150 144 136 119 107 107 106 111 110 109 103 101 106 103 100 97 94 95 91
144 145 142 144 149 147 143 138 134 134 135 136 136 137 138 140 142 143 144 143 142 141 139 138 138 139 140 141 142 142 140 135 131 127 125 124 120 119 121 125 132 133 133 138 144 146 140 127 110 106 102 96 89 99 134 143 142 139 140 133 116 93 73 104 144 144 143 141 133 119 113 115 116 126 124 115 108 103 107 107 106 103 99 97 93
151 150 144 143 151 153 145 139 135 134 134 135 136 138 141 142 142 142 143 144 143 142 141 142 142 142 142 141 141 139 137 132 129 127 124 123 122 123 123 126 130 131 134 133 136 143 145 136 123 113 99 100 102 106 138 149 149 151 149 136 120 95 74 115 153 150 144 141 131 121 118 115 117 132 129 118 115 111 111 111 110 109 106 101 98
154 150 145 145 153 157 145 139 137 136 136 137 139 140 142 143 142 143 144 145 144 143 144 145 145 144 143 142 142 139 136 132 129 126 123 120 121 124 126 130 133 136 139 136 131 129 132 130 119 113 106 106 102 100 131 152 155 157 156 142 125 96 78 126 161 159 150 144 131 123 116 107 113 130 128 121 119 120 118 116 114 112 110 107 107
154 150 151 150 151 153 143 140 141 139 139 140 141 141 142 141 142 144 145 146 145 145 145 146 147 146 146 145 144 142 138 135 129 126 123 121 120 124 131 134 140 143 138 138 135 126 125 125 119 115 112 105 97 90 108 144 159 159 158 145 121 86 70 134 163 163 157 145 134 128 115 102 115 136 139 131 125 126 123 121 118 115 114 111 108
154 152 159 153 149 153 147 143 142 140 141 141 142 143 143 143 144 146 146 148 148 148 148 149 150 150 150 149 147 145 141 138 134 132 126 124 123 128 137 140 147 147 139 139 138 132 130 128 125 122 116 106 95 87 87 125 157 159 156 143 111 72 67 139 161 164 160 149 140 131 111 103 115 136 149 145 135 131 127 125 123 119 116 113 112
156 158 165 159 153 156 152 146 144 144 144 143 145 146 146 147 148 149 150 152 153 153 154 154 155 154 154 154 154 150 147 144 141 140 137 132 129 133 140 145 152 150 148 148 143 139 135 131 128 126 125 116 99 92 84 107 150 160 157 142 103 68 70 142 161 164 164 154 144 129 112 108 107 125 154 159 144 136 135 131 128 127 122 119 120
160 163 163 160 158 156 153 150 150 148 147 148 149 151 151 152 152 154 155 156 158 158 159 160 159 158 159 161 162 160 157 155 152 149 146 142 138 139 143 147 151 154 157 154 149 144 137 132 129 130 133 129 114 106 94 101 140 160 160 139 96 70 70 139 162 167 169 159 146 132 116 113 114 143 170 167 150 142 142 137 133 132 127 125 121
161 162 158 160 161 158 157 154 154 153 153 154 153 154 154 156 157 158 159 160 161 162 164 165 164 163 165 165 166 166 164 162 161 160 157 153 149 148 148 149 152 159 163 159 154 149 141 136 133 133 132 130 123 119 109 103 128 153 162 138 91 73 69 129 163 170 172 162 149 137 123 126 157 180 177 173 159 150 147 142 137 134 131 128 123
156 159 160 164 164 163 161 157 159 159 160 158 156 156 156 159 161 162 163 164 165 167 169 169 170 172 174 172 169 170 167 166 166 167 171 170 161 154 154 153 156 163 166 164 160 155 149 142 139 140 135 128 122 122 120 109 122 145 161 147 90 77 62 95 163 173 175 166 157 146 137 138 175 185 180 179 167 157 152 147 141 140 138 132 129
153 160 166 166 166 166 164 163 165 165 166 165 162 160 161 164 166 168 169 168 171 176 176 175 178 181 181 178 172 171 170 171 173 175 180 182 172 161 161 161 162 166 167 169 169 163 159 151 149 152 146 138 132 130 129 117 122 141 161 162 100 86 58 42 158 176 182 173 166 155 148 141 184 188 182 182 172 164 158 151 146 147 144 137 134
158 164 167 168 169 170 170 172 171 172 174 172 170 169 169 172 174 177 177 177 180 183 185 183 184 184 182 179 173 170 171 173 179 183 186 188 180 170 169 168 167 168 168 176 181 170 168 165 164 170 168 165 161 157 156 137 118 136 156 158 101 88 72 34 147 178 186 180 171 161 160 162 190 191 186 184 177 169 160 154 154 153 149 146 142
161 164 166 167 171 172 174 178 178 180 180 179 178 178 178 181 185 186 186 187 187 188 191 190 187 188 184 180 177 172 172 175 180 188 194 192 181 177 177 172 170 172 170 180 189 175 170 173 178 186 189 198 193 200 194 166 120 120 143 140 105 84 76 34 140 178 191 186 175 165 167 181 192 195 192 191 186 175 163 162 163 159 157 153 147
158 162 163 165 171 175 179 182 186 186 187 188 185 186 187 188 190 191 193 194 194 195 196 196 193 195 190 185 184 176 176 180 184 189 195 192 183 184 182 176 177 179 175 181 191 183 179 182 190 202 207 216 206 197 191 183 137 116 119 122 105 71 38 12 150 180 196 190 176 169 176 188 195 202 201 199 190 177 169 171 170 169 168 158 152
159 163 164 169 175 180 184 185 190 192 193 195 192 194 193 194 195 194 199 200 202 202 200 201 201 204 201 197 194 182 180 186 192 195 192 189 188 189 185 183 185 187 187 187 190 193 197 196 202 214 217 220 209 191 184 205 214 126 115 132 123 330 331 335 172 184 199 189 176 169 176 188 198 209 207 198 184 176 176 177 177 178 175 165 157
162 169 169 175 180 180 185 189 192 194 196 198 198 199 200 201 200 199 205 207 209 208 205 204 206 213 212 208 203 193 192 195 203 205 196 193 193 192 188 190 190 194 197 191 192 197 205 209 212 213 210 209 195 186 190 222 249 244 280 219 202 311 312 279 187 191 199 189 179 169 172 187 200 211 208 208 190 180 184 183 183 186 182 177 169
161 174 176 179 182 179 184 190 193 194 196 201 203 204 205 204 202 202 208 214 216 213 211 207 208 217 219 215 209 204 202 204 214 210 199 197 196 192 190 195 198 201 201 198 199 201 209 221 231 225 206 197 185 188 206 226 245 254 266 249 241 301 293 216 181 193 198 189 180 169 172 184 197 208 214 225 201 183 191 190 187 192 191 186 182
164 175 178 178 180 181 187 192 195 195 197 203 205 206 207 204 202 202 208 220 222 218 217 216 214 220 224 221 215 213 211 211 217 209 200 198 197 195 194 199 204 205 204 204 207 212 220 231 246 243 223 211 208 221 241 248 245 233 240 241 243 292 273 210 180 182 194 192 182 171 176 184 194 211 221 226 200 189 196 194 192 197 198 192 188
172 176 175 172 181 190 192 195 197 194 194 199 201 202 202 201 201 203 210 218 222 220 222 223 220 221 222 222 217 215 216 216 214 207 203 201 199 200 202 207 210 209 208 208 214 219 222 228 239 238 231 233 240 254 271 266 238 214 224 231 234 268 247 213 194 183 191 195 187 177 178 185 194 210 217 210 193 196 204 201 202 204 202 197 191
180 179 174 170 180 197 196 195 195 191 189 191 195 196 194 196 200 204 209 213 215 216 219 220 216 214 216 216 212 208 208 211 212 208 207 207 205 205 208 212 212 211 212 214 219 221 220 226 226 224 230 236 250 269 283 274 235 216 224 230 236 253 225 212 204 192 193 194 189 185 183 188 194 199 201 194 189 198 204 207 208 209 210 203 195
178 174 175 173 179 195 196 193 192 188 186 186 190 191 188 191 197 201 204 208 209 210 211 213 210 206 207 208 206 206 205 206 209 207 207 213 213 208 207 210 212 215 215 214 217 219 220 221 214 215 225 229 246 266 275 268 228 220 230 235 245 275 237 214 206 198 199 200 193 192 193 195 197 194 191 185 191 195 199 208 210 214 220 206 201
172 165 171 175 179 190 194 193 191 186 183 183 185 185 184 186 192 195 200 207 209 209 209 208 207 201 199 201 203 208 207 206 208 207 208 215 218 212 210 213 214 217 215 211 214 216 215 211 205 213 222 225 244 259 264 250 211 217 227 227 239 318 282 224 211 205 206 208 202 199 201 201 200 198 196 187 194 194 193 205 209 216 229 208 203
176 173 178 182 186 192 192 192 188 183 180 180 181 180 179 179 182 188 195 203 204 206 210 208 207 204 201 201 206 211 209 208 209 211 213 214 218 221 219 216 211 211 211 209 212 209 205 203 203 211 220 229 242 254 259 242 211 216 217 214 202 78 71 200 211 212 209 208 205 205 207 208 206 202 202 195 197 200 195 202 203 211 228 212 203
175 180 187 190 192 192 190 188 182 180 180 178 178 174 170 166 169 178 185 193 197 200 206 207 207 208 208 208 213 215 212 212 211 213 216 214 217 221 218 214 209 208 207 207 206 203 203 202 200 205 216 231 242 253 257 237 210 202 195 209 193 143 113 131 188 209 214 215 210 208 211 212 212 209 209 203 200 202 203 204 202 210 223 214 205
159 160 168 173 177 180 183 181 176 176 174 170 171 169 163 156 156 162 169 181 193 195 197 204 209 211 212 213 218 219 218 219 216 214 214 212 213 214 212 211 208 204 202 205 202 201 205 197 192 204 219 233 240 250 248 224 206 186 160 165 168 155 129 116 135 173 202 218 221 219 219 220 219 217 215 212 208 207 208 209 208 213 219 217 210
146 143 146 152 156 161 167 167 164 165 161 157 161 161 158 155 154 152 149 154 175 183 185 200 213 217 217 219 222 224 225 226 223 219 213 208 211 212 211 203 198 198 193 198 202 202 202 196 197 210 226 231 225 234 235 206 194 180 161 165 157 150 145 124 119 125 138 170 207 221 225 231 230 225 222 220 217 215 213 214 214 216 220 220 218
144 142 144 146 147 150 155 156 156 157 155 153 152 153 154 152 152 149 140 132 140 158 164 181 197 205 212 217 226 229 229 226 222 219 214 208 208 210 211 200 196 199 192 195 204 204 201 203 209 213 222 222 218 234 237 204 192 198 202 198 189 177 165 142 127 122 116 119 127 174 219 232 236 234 231 227 223 221 219 218 217 218 223 226 227
146 146 146 147 148 149 151 151 152 153 150 148 145 149 151 145 146 146 140 132 132 140 140 139 144 152 161 174 198 202 210 211 204 208 213 208 203 204 206 200 198 203 198 199 207 209 205 205 211 215 219 218 227 245 248 246 230 228 235 201 196 199 185 172 163 152 130 116 105 85 78 222 233 236 234 233 229 226 225 223 221 221 225 227 231
147 148 148 150 150 150 150 150 152 152 149 147 145 145 144 140 142 143 141 139 139 144 146 143 136 134 135 130 127 117 137 175 180 183 185 191 194 196 198 195 196 203 205 205 208 211 210 210 213 217 223 225 240 255 265 278 266 242 245 231 208 209 204 197 196 187 156 130 114 88 61 71 207 234 234 236 235 233 232 231 228 227 227 228 230
148 150 150 151 153 153 153 151 154 156 154 153 152 149 143 141 143 144 145 145 147 148 146 146 139 131 130 125 114 101 108 129 145 152 148 158 156 150 169 179 191 198 199 202 203 204 206 210 214 218 225 229 238 251 265 275 276 272 270 277 278 255 235 223 224 215 177 147 121 107 82 73 99 185 221 231 236 237 239 240 239 237 235 233 233
149 152 154 155 157 157 155 154 157 160 160 158 156 154 149 145 145 147 149 149 152 150 141 137 133 128 125 117 110 100 108 106 97 113 125 130 120 103 103 117 145 168 177 187 194 198 202 208 213 215 218 221 225 234 247 257 280 311 308 319 307 281 255 244 249 247 215 206 192 124 97 74 100 136 172 205 220 229 235 239 242 243 242 240 239
152 155 156 157 158 158 157 158 160 162 163 160 157 156 155 153 149 147 148 147 148 152 148 144 143 140 135 131 128 120 125 116 96 107 116 116 116 106 101 106 116 137 160 175 182 194 204 215 220 217 217 223 227 226 226 232 240 187 101 46 326 303 285 277 284 281 250 235 238 239 253 297 297 192 177 187 197 205 214 223 231 236 239 240 241
154 156 158 161 161 161 162 162 165 167 167 163 161 161 159 157 152 147 146 144 142 146 147 147 151 151 147 146 143 132 134 131 117 114 110 112 122 117 106 105 107 120 143 157 159 175 194 212 220 214 217 222 219 222 219 216 208 184 151 109 56 31 307 300 338 323 289 243 232 236 244 249 247 225 198 195 195 197 201 208 213 219 230 236 237
158 160 163 165 163 166 166 166 169 170 170 168 169 169 163 156 149 142 140 135 134 138 139 140 142 142 139 134 126 126 130 122 112 111 110 110 115 118 108 101 96 102 113 115 110 109 128 167 192 196 210 213 198 204 211 213 211 199 174 121 56 67 247 268 15 352 314 337 277 251 241 231 217 217 215 187 172 194 205 207 211 214 222 232 234
164 165 168 169 169 170 169 170 172 173 178 181 179 175 167 159 153 146 141 136 136 139 139 139 139 139 135 130 126 124 121 114 98 95 105 108 106 113 111 103 100 103 105 103 97 90 89 104 143 190 210 211 193 189 187 198 212 212 203 184 161 197 248 274 82 7 328 319 295 279 275 268 243 240 248 245 249 246 228 213 220 230 232 233 232
169 170 172 174 174 173 172 174 177 179 183 184 181 175 168 165 163 158 151 146 145 144 142 141 141 143 142 139 140 137 128 118 99 85 99 118 120 122 115 109 114 117 114 108 101 94 89 90 94 117 182 199 199 189 175 175 201 216 214 204 210 11 49 26 142 149 338 322 314 294 292 294 273 260 260 258 247 242 236 220 222 240 246 243 237
172 173 176 177 179 178 176 177 180 180 177 175 177 175 169 167 165 161 157 154 151 147 145 143 140 141 139 135 133 137 139 131 113 89 92 115 126 124 118 113 116 120 120 115 110 105 95 90 90 92 108 148 188 185 166 170 190 202 205 208 225 251 63 21 353 111 117 49 324 336 352 336 299 279 268 250 230 232 241 239 238 243 245 245 240
176 177 179 180 182 182 178 180 184 180 174 172 174 174 170 167 165 162 158 157 154 149 147 144 141 140 139 137 135 136 142 143 135 108 97 105 114 117 115 110 112 118 118 112 112 110 101 94 93 95 100 103 110 120 131 155 177 172 179 188 190 178 92 46 20 52 99 102 311 323 355 359 350 344 308 260 245 242 249 255 258 255 249 252 246
178 179 181 182 184 184 181 183 187 182 176 175 174 172 169 167 167 163 159 159 156 152 149 148 151 151 147 146 144 141 142 143 143 133 116 109 111 112 106 99 104 116 120 115 114 114 109 103 99 99 105 104 104 103 103 109 113 125 158 175 169 153 105 63 52 58 89 91 86 334 345 352 352 6 12 349 288 265 263 264 259 254 253 257 259
177 178 181 183 184 185 184 185 189 187 181 180 179 176 172 170 169 166 163 163 160 156 154 154 158 159 155 152 149 145 144 143 139 136 131 122 117 112 103 95 96 103 110 114 118 119 117 116 112 108 108 109 110 107 99 98 98 97 108 129 134 122 102 81 66 65 78 77 77 32 347 354 336 353 20 33 35 17 320 289 268 259 255 253 262
Height
777 777 779 781 782 781 782 782 782 782 783 785 787 790 791 793 794 796 797 798 799 800 801 802 803 804 804 805 806 806 807 807 808 809 811 812 813 813 814 814 815 815 816 816 817 817 817 818 818 818 819 819 819 820 820 820 820 820 821 822 822 823 823 823 823 824 823 824 824 824 824 824 824 824 824 824 824 824 824 824 824 824 824 824 824
776 778 780 782 783 783 783 783 783 783 784 786 788 790 792 794 795 797 798 799 800 801 802 803 804 805 805 806 807 807 808 809 809 810 812 813 814 814 815 816 816 816 816 817 817 818 818 819 819 819 820 820 820 821 821 821 821 822 822 823 823 824 824 824 824 824 824 824 825 825 825 825 825 825 826 826 825 825 825 825 825 825 825 825 824
776 779 780 782 784 784 784 784 784 784 785 787 789 792 793 795 797 798 799 801 801 802 802 803 804 805 806 807 808 808 809 810 811 811 812 813 814 815 816 817 817 817 817 818 818 819 819 820 820 820 821 821 821 821 822 822 822 823 823 824 824 825 825 825 825 825 825 825 826 826 826 827 827 827 827 827 827 826 826 826 826 826 826 826 825
776 779 781 784 785 785 786 785 785 785 787 788 791 793 795 797 798 800 800 802 802 803 803 804 805 806 807 808 809 810 810 811 812 812 813 814 815 816 817 818 818 818 818 819 820 820 820 821 821 821 821 822 822 822 823 823 823 824 825 825 826 826 826 827 827 827 827 827 827 827 827 827 828 828 828 828 828 828 828 828 828 827 827 827 827
777 780 782 784 786 787 787 787 787 787 788 789 792 794 796 798 799 801 802 803 803 804 804 805 806 807 808 809 810 810 811 812 812 813 814 815 816 817 818 818 819 819 820 820 821 821 821 822 822 822 822 823 823 823 824 824 825 825 826 826 827 827 827 828 828 828 828 828 828 828 828 828 829 829 829 829 829 829 829 829 829 828 828 828 828
777 780 783 784 786 787 788 788 787 788 788 790 792 795 797 799 800 802 803 804 804 805 806 806 807 808 809 810 810 811 812 813 813 814 815 815 816 817 818 819 819 820 821 821 822 822 822 823 823 823 823 823 824 824 824 825 826 826 827 827 828 828 828 829 829 829 829 829 829 829 829 829 829 830 830 830 830 831 830 830 830 830 829 829 829
777 780 782 784 786 787 788 788 787 788 789 791 793 795 797 799 801 802 804 805 805 806 807 807 807 809 809 810 811 812 813 813 814 815 815 816 817 818 819 819 820 821 821 822 823 823 823 824 824 824 824 824 824 825 825 826 827 827 828 828 829 829 829 830 830 830 830 830 830 830 830 830 830 831 831 831 831 831 831 831 831 831 830 830 830
779 780 782 783 786 787 789 789 789 789 790 792 793 796 798 800 802 803 804 805 806 807 807 808 809 809 810 811 812 813 813 814 815 815 816 816 817 818 819 820 821 821 822 823 823 824 824 824 825 825 825 825 825 826 826 826 827 828 828 829 830 830 830 830 830 831 831 831 831 831 831 831 831 831 832 832 832 832 832 832 832 832 832 832 831
784 783 784 785 787 789 791 791 791 791 792 793 795 797 799 801 803 804 805 806 807 807 808 809 810 810 811 812 813 813 814 815 815 815 816 817 818 818 819 820 821 822 822 823 824 824 825 825 825 825 826 826 826 826 827 827 828 829 829 830 830 831 831 831 831 832 832 832 832 832 832 832 832 832 833 833 832 832 833 833 833 833 833 833 832
792 790 789 789 791 793 794 794 794 794 794 795 796 798 800 802 804 805 806 807 808 808 809 810 810 811 812 813 813 814 815 815 816 816 817 817 818 819 820 820 821 822 823 824 824 825 825 825 825 826 826 826 827 827 828 828 829 829 830 830 831 831 831 831 831 831 832 832 833 833 833 833 833 833 833 833 833 833 833 834 834 834 834 834 834
794 798 796 794 795 796 796 797 796 795 796 797 798 799 801 803 805 807 807 808 809 809 809 810 811 812 813 813 814 815 815 816 816 817 817 818 819 819 820 820 821 822 823 824 824 825 825 826 826 826 827 827 827 827 828 829 829 830 830 831 831 832 832 832 831 831 831 832 833 834 834 834 833 833 833 834 834 834 834 835 835 835 835 835 835
790 796 800 801 799 798 798 798 797 797 797 798 799 800 803 804 806 808 809 809 810 810 810 811 812 812 813 814 815 815 816 816 817 817 818 818 819 820 820 821 822 822 823 824 825 825 826 826 826 827 827 827 827 827 828 829 830 830 831 832 832 833 832 832 831 831 832 833 834 834 834 834 834 834 834 834 835 835 835 836 836 836 836 836 836
788 790 796 802 803 801 800 799 798 798 798 799 800 801 803 805 807 808 810 811 811 811 811 812 812 813 814 814 815 816 816 817 817 818 819 819 820 820 821 821 822 823 824 825 825 826 826 827 827 827 827 827 827 828 828 828 830 830 831 832 832 833 833 832 832 832 833 833 834 834 835 835 835 835 835 835 835 835 836 836 837 837 837 837 837
788 788 790 798 804 804 801 800 799 799 800 800 801 802 804 805 807 809 811 812 812 812 812 812 813 814 814 815 816 816 817 817 818 819 819 820 820 821 821 822 822 823 824 825 826 826 827 827 827 828 828 828 827 828 828 828 829 830 831 831 832 833 833 832 833 833 834 834 834 835 835 835 835 835 836 836 836 836 837 837 837 838 838 838 838
788 789 789 794 802 804 802 801 799 800 801 801 802 803 805 806 808 809 811 812 813 813 813 813 814 814 815 816 816 817 818 818 819 819 820 820 821 821 821 822 823 824 824 825 826 826 827 827 828 828 828 828 828 828 828 828 829 830 831 831 832 832 832 832 833 834 834 835 835 835 835 836 835 836 836 836 837 837 837 838 838 838 838 838 838
789 791 792 791 797 802 802 801 800 801 801 802 803 804 806 806 808 810 811 813 813 814 814 814 814 815 816 816 817 817 818 818 819 819 820 821 821 821 822 822 823 824 824 825 826 826 827 827 828 828 828 829 828 828 828 829 829 830 831 832 832 832 832 832 832 833 834 835 835 836 836 836 836 836 837 837 838 838 838 838 838 838 838 839 839
788 793 796 794 794 799 801 801 800 801 802 803 804 805 806 807 808 810 811 813 814 814 814 815 815 815 816 817 818 818 818 818 819 819 820 821 821 822 822 822 823 824 825 825 826 826 827 827 828 828 829 829 829 829 829 829 830 831 832 832 833 833 832 832 833 834 835 835 836 837 837 836 836 837 837 838 838 838 838 838 839 839 839 839 839
789 791 796 796 794 797 799 799 800 801 802 803 805 806 807 808 809 810 811 813 813 814 815 815 815 816 817 818 818 819 819 819 819 819 820 821 821 822 822 822 823 824 825 826 826 826 827 827 828 829 829 829 829 829 829 830 830 831 832 833 834 833 833 832 834 835 836 836 837 837 837 837 837 837 837 838 838 839 839 839 839 839 840 840 840
792 793 794 796 795 797 798 799 800 801 802 804 805 807 808 809 809 810 811 812 814 814 815 816 816 817 818 818 819 819 819 819 820 820 820 821 821 822 822 823 823 824 825 826 827 827 827 828 828 829 829 830 830 830 830 830 831 832 833 834 834 834 834 833 834 836 836 837 837 837 837 837 837 837 838 838 839 839 839 839 839 840 840 840 840
795 796 796 797 797 798 799 800 801 801 803 804 806 807 809 809 810 811 812 813 814 815 815 816 817 818 819 819 819 819 820 820 820 820 820 821 821 822 822 823 824 825 826 826 827 828 828 828 829 829 830 830 830 830 830 830 831 832 833 834 834 835 834 834 835 836 837 837 838 838 838 838 838 838 838 838 838 839 840 840 840 840 841 840 841
796 798 798 799 799 800 800 801 801 803 804 805 807 808 809 810 810 811 812 813 814 815 816 817 818 818 819 819 820 820 820 820 820 820 820 820 821 822 822 823 824 825 826 827 828 828 828 829 829 830 830 830 831 830 830 830 831 832 833 834 835 835 835 835 835 836 837 837 838 838 838 838 838 838 839 839 839 839 840 840 841 841 841 841 841
795 799 800 800 800 801 801 802 803 804 806 807 808 808 810 810 811 812 812 814 814 816 816 817 818 819 820 820 820 821 821 821 820 820 820 820 821 822 823 823 824 825 826 827 828 829 829 829 830 830 831 831 831 831 831 830 831 832 833 834 834 835 835 835 835 836 837 837 838 838 839 839 839 839 839 839 839 840 840 840 841 841 841 842 842
793 798 800 800 800 801 802 803 804 805 806 807 808 808 809 810 811 812 813 814 815 816 816 817 818 819 820 820 821 821 821 821 820 820 820 820 821 822 823 823 824 825 826 827 828 829 829 830 830 831 831 831 831 831 831 831 831 831 832 834 834 835 835 835 835 836 837 837 838 838 839 839 839 839 839 840 840 840 840 841 841 842 842 842 842
792 795 797 799 800 801 803 804 805 806 807 807 808 808 809 810 811 812 814 815 815 816 817 818 819 819 820 820 820 821 821 820 820 820 820 820 821 822 823 823 824 825 826 827 828 829 830 830 830 831 831 831 832 832 832 831 831 831 832 833 834 835 835 835 835 836 837 837 838 839 839 839 839 839 839 840 840 841 841 842 842 842 842 842 842
793 794 795 797 799 801 803 804 805 806 806 807 808 809 809 811 812 813 814 815 816 817 817 819 819 819 819 820 820 820 820 820 820 820 820 821 821 822 822 823 824 825 826 827 828 829 829 830 830 831 831 832 832 832 832 831 831 831 831 832 834 834 835 835 836 836 836 837 838 838 839 839 839 839 839 840 840 841 842 842 842 842 842 842 843
792 793 793 796 798 800 802 803 805 805 806 807 808 809 810 811 812 813 814 815 816 817 818 819 819 819 819 819 819 820 820 819 820 820 820 820 820 821 822 823 824 824 825 826 828 828 829 830 830 831 831 831 832 832 832 832 831 831 831 832 833 834 835 835 836 836 836 837 838 838 839 839 839 839 839 840 840 841 842 842 843 843 843 843 843
790 792 793 794 796 798 800 802 804 805 806 807 808 809 810 811 812 813 814 815 816 817 818 819 819 819 819 819 819 819 819 819 819 819 820 820 820 821 822 823 823 824 824 826 827 828 829 829 830 830 831 831 831 832 832 831 831 831 832 832 833 833 834 834 835 836 837 837 837 838 838 838 839 839 839 839 840 841 842 842 843 843 843 843 843
789 792 792 794 796 798 800 802 803 804 806 807 808 809 810 811 812 813 815 816 817 817 818 818 819 818 818 818 818 819 819 819 819 819 819 819 819 820 821 822 822 823 824 825 826 827 828 829 829 830 830 831 831 832 831 831 831 831 832 832 833 833 833 834 834 835 836 837 837 837 838 838 838 839 839 839 840 841 841 842 843 843 843 844 844
789 791 792 794 797 799 800 802 803 805 806 807 808 809 810 811 812 813 815 815 816 817 817 818 818 818 818 818 818 818 818 818 818 818 818 818 819 820 821 821 822 823 823 824 825 826 827 828 829 829 830 831 831 831 831 831 831 831 832 832 832 832 832 833 834 835 836 837 837 837 837 838 838 838 839 839 840 841 841 841 842 843 843 844 844
788 790 791 793 798 800 801 802 804 805 806 807 808 809 810 811 812 813 814 815 816 817 817 817 817 817 817 817 817 817 817 817 817 817 818 818 818 819 820 821 821 822 823 823 824 825 826 827 828 829 829 830 831 831 831 831 830 831 831 832 832 832 832 832 833 834 835 836 836 837 837 837 838 838 839 839 840 841 841 841 842 842 843 843 844
787 788 787 790 796 801 802 802 803 805 806 807 808 809 810 811 812 812 813 814 815 816 816 816 816 816 816 816 816 816 817 817 817 817 817 818 818 819 820 820 821 821 822 823 824 825 826 827 827 828 829 830 831 831 831 830 830 830 831 832 832 831 831 832 832 833 834 835 835 836 836 837 837 838 838 839 839 840 841 842 842 842 842 843 843
785 785 786 788 792 799 802 802 803 804 805 807 808 809 810 810 811 811 813 813 814 815 815 815 815 815 815 815 815 815 816 816 816 817 817 818 818 818 819 820 820 821 822 823 823 824 825 826 827 828 829 830 830 830 830 830 829 830 831 831 831 831 831 831 832 833 833 833 834 835 835 836 836 837 838 838 839 840 841 841 842 842 842 842 843
782 783 786 788 791 796 800 801 802 804 805 806 808 809 809 810 810 811 812 813 813 814 813 813 813 814 814 814 814 814 815 815 816 817 817 818 818 819 819 820 821 821 822 822 823 824 825 826 826 827 828 829 829 830 830 830 830 830 830 831 831 830 830 831 831 832 832 833 833 834 834 835 835 836 837 837 838 839 839 840 841 842 842 842 842
781 782 785 788 792 796 799 801 802 804 805 807 807 808 809 809 810 811 812 812 812 812 812 812 812 813 813 813 814 814 814 814 815 816 817 817 818 819 819 820 821 821 822 822 823 824 825 825 826 827 828 828 829 829 830 830 830 830 830 831 831 830 830 830 831 832 832 832 833 834 834 835 835 835 836 837 837 838 839 839 840 841 841 841 842
781 782 784 788 792 795 798 800 802 804 805 807 807 808 809 810 811 811 812 812 812 812 811 811 812 812 813 813 813 813 813 814 815 816 816 817 817 818 819 820 820 821 821 822 823 824 825 825 826 827 827 828 828 829 829 829 830 830 830 830 830 831 830 830 831 832 833 833 833 834 834 835 835 835 835 836 837 837 838 838 839 840 840 841 841
781 782 784 788 791 794 797 800 802 804 805 807 808 809 810 810 811 811 811 811 811 812 811 811 812 813 813 813 813 813 813 814 814 815 815 816 817 818 819 819 820 820 821 821 822 824 824 825 825 826 827 827 828 828 828 829 829 830 830 830 831 831 831 831 831 831 832 833 834 834 834 835 835 835 835 836 836 837 837 838 839 839 840 840 840
782 782 784 788 791 794 797 799 801 803 805 806 808 809 810 810 810 811 812 812 811 812 812 812 813 814 814 814 814 813 814 814 814 814 815 816 816 817 818 819 820 820 820 821 822 823 824 824 825 826 826 827 827 827 828 829 829 830 830 830 831 831 832 832 831 831 832 833 833 834 834 834 835 835 836 836 836 836 837 838 838 839 839 840 840
783 784 786 789 791 795 797 798 800 803 804 806 808 809 810 810 810 811 812 812 812 813 813 814 814 815 815 815 814 814 814 814 814 814 814 815 816 817 818 818 819 819 820 820 821 822 823 824 824 825 826 826 827 827 828 829 829 830 830 830 830 831 832 832 832 832 832 832 832 832 833 833 834 835 835 836 836 836 837 837 838 839 839 839 840
783 785 787 790 792 795 797 798 800 802 804 806 807 809 809 810 810 811 812 813 814 814 815 816 816 817 816 816 815 814 814 814 814 814 815 815 816 817 817 817 818 818 819 820 821 822 823 823 824 824 825 826 827 827 828 828 829 829 829 830 830 831 831 831 831 832 832 832 832 832 832 832 833 833 834 835 835 836 836 837 838 838 838 839 839
783 785 788 790 792 795 797 798 801 802 804 806 807 808 809 810 810 811 812 813 814 816 817 817 818 818 817 817 816 815 815 815 815 815 815 816 816 817 817 817 817 817 818 820 821 822 822 823 823 824 825 826 827 827 828 828 828 828 829 829 830 830 831 831 831 831 832 831 831 832 832 832 832 832 833 834 835 835 836 837 837 838 838 838 839
783 785 787 790 792 794 796 798 801 802 804 805 806 807 808 809 810 811 813 814 815 816 818 819 819 819 819 818 818 817 817 816 816 816 816 816 816 816 816 817 817 817 818 819 821 821 822 822 823 824 824 825 826 827 827 828 828 828 828 829 829 829 830 830 830 831 831 831 831 831 832 832 832 832 832 833 834 834 835 836 836 837 837 838 838
783 784 786 789 791 793 795 797 800 802 803 805 806 807 809 810 810 812 813 815 816 817 818 819 819 819 819 820 819 819 818 818 817 817 817 817 817 816 816 816 817 817 818 819 820 821 821 822 822 823 824 825 826 827 827 828 828 828 828 828 829 828 828 828 829 829 830 830 831 831 831 832 833 832 832 833 833 833 834 834 835 836 836 837 837
782 784 786 788 791 793 795 797 800 802 804 805 806 808 810 812 812 813 814 816 817 818 818 819 819 819 820 820 820 821 820 819 818 818 817 817 817 817 817 817 817 817 818 818 819 820 820 821 821 822 823 824 825 826 827 828 828 829 829 829 830 829 828 827 828 829 828 829 830 830 831 832 832 832 832 832 833 833 833 833 834 834 835 835 836
782 784 786 788 790 792 794 797 800 802 804 805 807 808 811 813 814 815 815 816 817 818 818 819 819 819 820 820 820 821 821 821 820 819 818 818 817 817 817 817 816 817 817 818 818 819 819 820 820 821 822 823 824 825 827 827 827 828 829 830 831 831 830 828 828 828 828 828 828 829 830 831 832 832 832 832 832 832 832 832 832 833 833 834 834
782 783 785 787 789 792 795 798 800 802 804 805 807 808 810 812 814 815 816 816 817 818 819 820 820 820 821 821 821 821 821 821 820 819 819 818 818 818 817 817 816 817 817 818 818 819 819 820 820 821 822 823 824 825 827 827 827 828 829 830 831 832 831 829 828 828 828 828 828 828 829 830 831 831 832 831 832 832 832 832 832 832 832 833 833
782 783 786 787 789 792 795 798 800 802 804 805 807 808 809 811 812 813 814 815 817 818 819 820 821 821 822 822 822 822 822 822 821 821 820 819 819 819 818 817 817 817 818 818 819 819 820 820 821 821 822 823 824 826 827 827 827 827 828 829 830 831 830 829 829 829 828 827 828 828 828 829 829 830 830 830 831 832 832 831 831 831 832 832 833
782 784 786 788 790 793 796 798 800 802 803 805 806 807 808 810 811 812 813 815 817 819 820 821 822 822 823 823 823 824 824 824 823 823 822 821 821 820 820 819 819 819 819 819 820 820 820 820 821 822 822 824 825 825 826 826 826 827 828 829 829 830 830 829 830 830 830 829 828 828 828 828 828 828 828 828 829 830 831 830 830 830 830 831 832
781 783 786 788 790 793 796 798 800 801 803 804 805 806 807 809 811 813 814 816 817 819 820 821 822 823 823 823 823 824 825 825 825 825 824 823 823 822 822 821 821 821 821 821 821 821 821 821 822 822 822 824 825 825 826 826 827 827 827 828 829 830 830 829 829 829 830 831 830 829 828 828 827 827 828 828 828 829 830 830 830 830 830 830 830
780 782 784 787 789 792 795 797 799 800 802 803 804 805 806 808 811 813 816 817 818 819 820 821 822 823 823 823 824 824 825 826 826 826 826 825 824 824 824 823 823 823 822 822 823 823 823 823 823 823 823 824 825 825 826 827 827 827 827 829 830 830 830 830 830 829 830 831 831 831 829 828 827 827 827 827 828 828 829 829 830 830 830 830 830
780 782 784 786 788 790 793 795 797 799 800 802 803 804 805 807 811 814 816 818 819 819 820 821 822 823 823 823 824 824 825 826 827 827 827 826 826 825 825 825 824 824 824 824 824 824 825 824 825 825 825 825 826 826 827 827 827 827 828 829 830 830 831 831 831 830 830 830 831 831 830 829 829 828 827 827 827 828 829 829 829 829 830 830 830
781 782 783 785 787 788 791 793 795 797 799 801 803 804 804 806 810 813 816 818 819 819 819 820 822 823 823 823 824 825 825 827 828 828 828 827 827 826 826 826 826 826 826 826 826 826 826 826 826 827 827 827 827 828 828 828 828 828 829 829 830 831 831 831 831 831 830 830 831 831 830 830 829 829 828 828 828 828 828 828 828 828 829 830 830